Check out our new BloomSky Weather System.

Active alerts

Houston, TX
  Details for Houston, TX Dense Fog Advisory


Thunder radar  blitzortung!


Rain radar more information rain snow radar


Visit our other weather sites:

Template documentation
and downloads

And another site



Weather Underground History page Text

Daily Summary for December 6, 2017 Units:  Both    English   Metric
« Previous Day
Next Day »
Daily Weekly Monthly Yearly Custom
  High: Low: Average:
Temperature: 54.1 °F /  12.3 °C 40.8 °F /  4.9 °C 44.7 °F /  7.1 °C
Dew Point: 43.3 °F /  6.3 °C 38.7 °F /  3.7 °C 40.8 °F /  4.9 °C
Humidity: 96 % 58 % 87 %
Wind Speed: 10.0 mph /  16.1 km/h - 2.6 mph /  4.2 km/h
Wind Gust: 15.0 mph /  24.1 km/h - -
Wind:- - SW
Pressure: 30.37 in /  1028.3 hPa 30.21 in /  1022.9 hPa -
Precipitation: 0.52 in /  13.21 mm    
Historical Graphs
 
 
Tabular Data for December 6, 2017
Time Temperature Dew Point Pressure Wind Wind Speed Wind Gust Humidity Rainfall Rate (Hourly)
00:04 54.0 °F /  12.2 °C 41.2 °F /  5.1 °C 30.23 in /  1023.6 hPa NE 3.0 mph /  4.8 km/h 8.0 mph /  12.9 km/h 62 % 0.00 in /  0 mm
00:09 54.0 °F /  12.2 °C 40.8 °F /  4.9 °C 30.24 in /  1023.9 hPa North 3.0 mph /  4.8 km/h 7.0 mph /  11.3 km/h 61 % 0.00 in /  0 mm
00:14 54.0 °F /  12.2 °C 40.8 °F /  4.9 °C 30.23 in /  1023.6 hPa Calm   8.0 mph /  12.9 km/h 61 % 0.00 in /  0 mm
00:19 54.0 °F /  12.2 °C 40.5 °F /  4.7 °C 30.23 in /  1023.6 hPa Calm   8.0 mph /  12.9 km/h 60 % 0.00 in /  0 mm
00:24 54.0 °F /  12.2 °C 40.5 °F /  4.7 °C 30.25 in /  1024.3 hPa Calm   9.0 mph /  14.5 km/h 60 % 0.00 in /  0 mm
00:29 54.1 °F /  12.3 °C 40.6 °F /  4.8 °C 30.25 in /  1024.3 hPa NNW 4.0 mph /  6.4 km/h 9.0 mph /  14.5 km/h 60 % 0.00 in /  0 mm
00:34 54.1 °F /  12.3 °C 40.6 °F /  4.8 °C 30.25 in /  1024.3 hPa NNW 5.0 mph /  8 km/h 9.0 mph /  14.5 km/h 60 % 0.00 in /  0 mm
00:39 54.1 °F /  12.3 °C 40.6 °F /  4.8 °C 30.25 in /  1024.3 hPa North 2.0 mph /  3.2 km/h 7.0 mph /  11.3 km/h 60 % 0.00 in /  0 mm
00:44 54.0 °F /  12.2 °C 40.5 °F /  4.7 °C 30.25 in /  1024.3 hPa NNW 1.0 mph /  1.6 km/h 7.0 mph /  11.3 km/h 60 % 0.00 in /  0 mm
00:45 54.0 °F /  12.2 °C 40.5 °F /  4.7 °C 30.25 in /  1024.3 hPa NNW 3.0 mph /  4.8 km/h 7.0 mph /  11.3 km/h 60 % 0.00 in /  0 mm
00:50 54.0 °F /  12.2 °C 40.5 °F /  4.7 °C 30.23 in /  1023.6 hPa East 3.0 mph /  4.8 km/h 7.0 mph /  11.3 km/h 60 % 0.00 in /  0 mm
01:00 53.8 °F /  12.1 °C 40.6 °F /  4.8 °C 30.23 in /  1023.6 hPa Calm   6.0 mph /  9.7 km/h 61 % 0.00 in /  0 mm
01:05 53.8 °F /  12.1 °C 39.7 °F /  4.3 °C 30.23 in /  1023.6 hPa NW 3.0 mph /  4.8 km/h 7.0 mph /  11.3 km/h 59 % 0.00 in /  0 mm
01:10 53.8 °F /  12.1 °C 39.4 °F /  4.1 °C 30.24 in /  1023.9 hPa West 5.0 mph /  8 km/h 7.0 mph /  11.3 km/h 58 % 0.00 in /  0 mm
01:15 53.8 °F /  12.1 °C 39.4 °F /  4.1 °C 30.24 in /  1023.9 hPa NNW 3.0 mph /  4.8 km/h 7.0 mph /  11.3 km/h 58 % 0.00 in /  0 mm
01:25 53.2 °F /  11.8 °C 40.6 °F /  4.8 °C 30.23 in /  1023.6 hPa NW 1.0 mph /  1.6 km/h 11.0 mph /  17.7 km/h 62 % 0.00 in /  0 mm
01:30 52.3 °F /  11.3 °C 41.7 °F /  5.4 °C 30.24 in /  1023.9 hPa West 2.0 mph /  3.2 km/h 11.0 mph /  17.7 km/h 67 % 0.01 in /  0.25 mm
01:35 51.6 °F /  10.9 °C 41.7 °F /  5.4 °C 30.25 in /  1024.3 hPa West 2.0 mph /  3.2 km/h 11.0 mph /  17.7 km/h 69 % 0.02 in /  0.51 mm
01:40 51.1 °F /  10.6 °C 42.1 °F /  5.6 °C 30.23 in /  1023.6 hPa NW 1.0 mph /  1.6 km/h 7.0 mph /  11.3 km/h 71 % 0.02 in /  0.51 mm
01:45 50.7 °F /  10.4 °C 41.4 °F /  5.2 °C 30.22 in /  1023.2 hPa NNW 4.0 mph /  6.4 km/h 8.0 mph /  12.9 km/h 70 % 0.02 in /  0.51 mm
01:50 51.1 °F /  10.6 °C 40.1 °F /  4.5 °C 30.23 in /  1023.6 hPa NE 3.0 mph /  4.8 km/h 11.0 mph /  17.7 km/h 66 % 0.02 in /  0.51 mm
01:55 51.4 °F /  10.8 °C 40.5 °F /  4.7 °C 30.23 in /  1023.6 hPa ESE 5.0 mph /  8 km/h 14.0 mph /  22.5 km/h 66 % 0.02 in /  0.51 mm
02:00 51.6 °F /  10.9 °C 40.3 °F /  4.6 °C 30.23 in /  1023.6 hPa NW 4.0 mph /  6.4 km/h 14.0 mph /  22.5 km/h 65 % 0.02 in /  0.51 mm
02:05 51.6 °F /  10.9 °C 39.9 °F /  4.4 °C 30.24 in /  1023.9 hPa Calm   14.0 mph /  22.5 km/h 64 % 0.02 in /  0.51 mm
02:10 52.0 °F /  11.1 °C 39.7 °F /  4.3 °C 30.22 in /  1023.2 hPa NNW 4.0 mph /  6.4 km/h 14.0 mph /  22.5 km/h 63 % 0.02 in /  0.51 mm
02:15 52.0 °F /  11.1 °C 39.7 °F /  4.3 °C 30.23 in /  1023.6 hPa WNW 3.0 mph /  4.8 km/h 14.0 mph /  22.5 km/h 63 % 0.02 in /  0.51 mm
02:20 52.0 °F /  11.1 °C 39.7 °F /  4.3 °C 30.22 in /  1023.2 hPa NW 9.0 mph /  14.5 km/h 14.0 mph /  22.5 km/h 63 % 0.02 in /  0.51 mm
02:26 51.6 °F /  10.9 °C 39.0 °F /  3.9 °C 30.22 in /  1023.2 hPa North 4.0 mph /  6.4 km/h 13.0 mph /  20.9 km/h 62 % 0.02 in /  0.51 mm
02:31 51.6 °F /  10.9 °C 39.0 °F /  3.9 °C 30.23 in /  1023.6 hPa ENE 9.0 mph /  14.5 km/h 13.0 mph /  20.9 km/h 62 % 0.01 in /  0.25 mm
02:36 51.6 °F /  10.9 °C 38.7 °F /  3.7 °C 30.23 in /  1023.6 hPa NNW 7.0 mph /  11.3 km/h 14.0 mph /  22.5 km/h 61 % 0.00 in /  0 mm
02:41 51.6 °F /  10.9 °C 39.0 °F /  3.9 °C 30.24 in /  1023.9 hPa NW 2.0 mph /  3.2 km/h 14.0 mph /  22.5 km/h 62 % 0.00 in /  0 mm
02:46 51.6 °F /  10.9 °C 39.0 °F /  3.9 °C 30.24 in /  1023.9 hPa NNE 6.0 mph /  9.7 km/h 14.0 mph /  22.5 km/h 62 % 0.00 in /  0 mm
02:51 51.6 °F /  10.9 °C 39.0 °F /  3.9 °C 30.22 in /  1023.2 hPa NNW 1.0 mph /  1.6 km/h 10.0 mph /  16.1 km/h 62 % 0.00 in /  0 mm
03:01 51.4 °F /  10.8 °C 39.2 °F /  4 °C 30.22 in /  1023.2 hPa ENE 4.0 mph /  6.4 km/h 13.0 mph /  20.9 km/h 63 % 0.00 in /  0 mm
03:06 51.1 °F /  10.6 °C 39.4 °F /  4.1 °C 30.23 in /  1023.6 hPa NW 4.0 mph /  6.4 km/h 13.0 mph /  20.9 km/h 64 % 0.00 in /  0 mm
03:11 50.7 °F /  10.4 °C 39.4 °F /  4.1 °C 30.22 in /  1023.2 hPa NE 3.0 mph /  4.8 km/h 13.0 mph /  20.9 km/h 65 % 0.00 in /  0 mm
03:16 50.5 °F /  10.3 °C 39.9 °F /  4.4 °C 30.24 in /  1023.9 hPa NNW 2.0 mph /  3.2 km/h 10.0 mph /  16.1 km/h 67 % 0.00 in /  0 mm
03:21 50.4 °F /  10.2 °C 40.6 °F /  4.8 °C 30.23 in /  1023.6 hPa Calm   10.0 mph /  16.1 km/h 69 % 0.00 in /  0 mm
03:26 50.2 °F /  10.1 °C 40.5 °F /  4.7 °C 30.21 in /  1022.9 hPa NNE 3.0 mph /  4.8 km/h 9.0 mph /  14.5 km/h 69 % 0.00 in /  0 mm
03:31 50.0 °F /  10 °C 40.6 °F /  4.8 °C 30.22 in /  1023.2 hPa NW 5.0 mph /  8 km/h 9.0 mph /  14.5 km/h 70 % 0.00 in /  0 mm
03:36 49.8 °F /  9.9 °C 40.5 °F /  4.7 °C 30.22 in /  1023.2 hPa Calm   9.0 mph /  14.5 km/h 70 % 0.00 in /  0 mm
03:41 49.8 °F /  9.9 °C 41.2 °F /  5.1 °C 30.21 in /  1022.9 hPa NNW 4.0 mph /  6.4 km/h 8.0 mph /  12.9 km/h 72 % 0.00 in /  0 mm
03:46 49.6 °F /  9.8 °C 41.4 °F /  5.2 °C 30.22 in /  1023.2 hPa North 6.0 mph /  9.7 km/h 8.0 mph /  12.9 km/h 73 % 0.00 in /  0 mm
03:51 49.5 °F /  9.7 °C 41.5 °F /  5.3 °C 30.22 in /  1023.2 hPa Calm   7.0 mph /  11.3 km/h 74 % 0.00 in /  0 mm
03:56 49.3 °F /  9.6 °C 41.7 °F /  5.4 °C 30.22 in /  1023.2 hPa North 1.0 mph /  1.6 km/h 7.0 mph /  11.3 km/h 75 % 0.00 in /  0 mm
04:01 49.1 °F /  9.5 °C 41.2 °F /  5.1 °C 30.22 in /  1023.2 hPa NW 2.0 mph /  3.2 km/h 11.0 mph /  17.7 km/h 74 % 0.00 in /  0 mm
04:06 49.1 °F /  9.5 °C 41.5 °F /  5.3 °C 30.23 in /  1023.6 hPa West 4.0 mph /  6.4 km/h 11.0 mph /  17.7 km/h 75 % 0.00 in /  0 mm
04:11 48.9 °F /  9.4 °C 41.0 °F /  5 °C 30.23 in /  1023.6 hPa NNW 2.0 mph /  3.2 km/h 11.0 mph /  17.7 km/h 74 % 0.00 in /  0 mm
04:16 48.9 °F /  9.4 °C 41.0 °F /  5 °C 30.23 in /  1023.6 hPa NW 4.0 mph /  6.4 km/h 9.0 mph /  14.5 km/h 74 % 0.00 in /  0 mm
04:21 48.9 °F /  9.4 °C 40.3 °F /  4.6 °C 30.22 in /  1023.2 hPa NNW 3.0 mph /  4.8 km/h 9.0 mph /  14.5 km/h 72 % 0.00 in /  0 mm
04:26 48.9 °F /  9.4 °C 39.9 °F /  4.4 °C 30.22 in /  1023.2 hPa North 4.0 mph /  6.4 km/h 13.0 mph /  20.9 km/h 71 % 0.00 in /  0 mm
04:31 48.7 °F /  9.3 °C 40.1 °F /  4.5 °C 30.22 in /  1023.2 hPa WNW 3.0 mph /  4.8 km/h 13.0 mph /  20.9 km/h 72 % 0.00 in /  0 mm
04:36 48.7 °F /  9.3 °C 40.1 °F /  4.5 °C 30.22 in /  1023.2 hPa NNW 5.0 mph /  8 km/h 13.0 mph /  20.9 km/h 72 % 0.00 in /  0 mm
04:41 48.6 °F /  9.2 °C 41.4 °F /  5.2 °C 30.23 in /  1023.6 hPa NNW 3.0 mph /  4.8 km/h 13.0 mph /  20.9 km/h 76 % 0.00 in /  0 mm
04:46 48.0 °F /  8.9 °C 41.5 °F /  5.3 °C 30.23 in /  1023.6 hPa North 7.0 mph /  11.3 km/h 13.0 mph /  20.9 km/h 78 % 0.00 in /  0 mm
04:51 47.5 °F /  8.6 °C 41.5 °F /  5.3 °C 30.23 in /  1023.6 hPa NNW 5.0 mph /  8 km/h 14.0 mph /  22.5 km/h 80 % 0.00 in /  0 mm
04:56 47.1 °F /  8.4 °C 41.5 °F /  5.3 °C 30.23 in /  1023.6 hPa NNE 4.0 mph /  6.4 km/h 14.0 mph /  22.5 km/h 81 % 0.00 in /  0 mm
05:01 46.9 °F /  8.3 °C 41.2 °F /  5.1 °C 30.22 in /  1023.2 hPa NNE 3.0 mph /  4.8 km/h 14.0 mph /  22.5 km/h 80 % 0.00 in /  0 mm
05:06 46.9 °F /  8.3 °C 41.2 °F /  5.1 °C 30.23 in /  1023.6 hPa ENE 3.0 mph /  4.8 km/h 13.0 mph /  20.9 km/h 80 % 0.00 in /  0 mm
05:11 47.1 °F /  8.4 °C 41.4 °F /  5.2 °C 30.22 in /  1023.2 hPa NNE 2.0 mph /  3.2 km/h 13.0 mph /  20.9 km/h 80 % 0.00 in /  0 mm
05:21 47.1 °F /  8.4 °C 41.5 °F /  5.3 °C 30.23 in /  1023.6 hPa West 5.0 mph /  8 km/h 8.0 mph /  12.9 km/h 81 % 0.00 in /  0 mm
05:26 47.1 °F /  8.4 °C 41.5 °F /  5.3 °C 30.23 in /  1023.6 hPa NNW 4.0 mph /  6.4 km/h 8.0 mph /  12.9 km/h 81 % 0.00 in /  0 mm
05:31 47.1 °F /  8.4 °C 41.5 °F /  5.3 °C 30.23 in /  1023.6 hPa SSW 2.0 mph /  3.2 km/h 8.0 mph /  12.9 km/h 81 % 0.00 in /  0 mm
05:36 47.1 °F /  8.4 °C 41.5 °F /  5.3 °C 30.22 in /  1023.2 hPa NW 2.0 mph /  3.2 km/h 13.0 mph /  20.9 km/h 81 % 0.00 in /  0 mm
05:41 47.1 °F /  8.4 °C 41.5 °F /  5.3 °C 30.22 in /  1023.2 hPa NE 2.0 mph /  3.2 km/h 13.0 mph /  20.9 km/h 81 % 0.00 in /  0 mm
05:46 47.1 °F /  8.4 °C 41.5 °F /  5.3 °C 30.23 in /  1023.6 hPa NNW 5.0 mph /  8 km/h 13.0 mph /  20.9 km/h 81 % 0.00 in /  0 mm
05:56 47.1 °F /  8.4 °C 41.4 °F /  5.2 °C 30.23 in /  1023.6 hPa NW 3.0 mph /  4.8 km/h 9.0 mph /  14.5 km/h 80 % 0.00 in /  0 mm
06:01 47.3 °F /  8.5 °C 41.4 °F /  5.2 °C 30.24 in /  1023.9 hPa NNW 1.0 mph /  1.6 km/h 9.0 mph /  14.5 km/h 80 % 0.00 in /  0 mm
06:07 47.3 °F /  8.5 °C 41.2 °F /  5.1 °C 30.24 in /  1023.9 hPa North 3.0 mph /  4.8 km/h 9.0 mph /  14.5 km/h 79 % 0.00 in /  0 mm
06:12 47.3 °F /  8.5 °C 40.8 °F /  4.9 °C 30.24 in /  1023.9 hPa NNW 3.0 mph /  4.8 km/h 8.0 mph /  12.9 km/h 78 % 0.00 in /  0 mm
06:17 47.5 °F /  8.6 °C 40.6 °F /  4.8 °C 30.25 in /  1024.3 hPa North 3.0 mph /  4.8 km/h 8.0 mph /  12.9 km/h 77 % 0.00 in /  0 mm
06:22 47.5 °F /  8.6 °C 39.9 °F /  4.4 °C 30.25 in /  1024.3 hPa NNW 4.0 mph /  6.4 km/h 8.0 mph /  12.9 km/h 75 % 0.00 in /  0 mm
06:27 47.7 °F /  8.7 °C 40.1 °F /  4.5 °C 30.24 in /  1023.9 hPa NNW 2.0 mph /  3.2 km/h 13.0 mph /  20.9 km/h 75 % 0.00 in /  0 mm
06:32 47.7 °F /  8.7 °C 39.7 °F /  4.3 °C 30.25 in /  1024.3 hPa North 4.0 mph /  6.4 km/h 13.0 mph /  20.9 km/h 74 % 0.00 in /  0 mm
06:37 47.7 °F /  8.7 °C 40.5 °F /  4.7 °C 30.25 in /  1024.3 hPa NNE 2.0 mph /  3.2 km/h 13.0 mph /  20.9 km/h 76 % 0.00 in /  0 mm
06:42 47.1 °F /  8.4 °C 41.0 °F /  5 °C 30.25 in /  1024.3 hPa NE 3.0 mph /  4.8 km/h 9.0 mph /  14.5 km/h 79 % 0.00 in /  0 mm
06:47 46.8 °F /  8.2 °C 41.2 °F /  5.1 °C 30.27 in /  1024.9 hPa NNW 2.0 mph /  3.2 km/h 9.0 mph /  14.5 km/h 81 % 0.00 in /  0 mm
06:52 46.6 °F /  8.1 °C 41.0 °F /  5 °C 30.27 in /  1024.9 hPa NE 2.0 mph /  3.2 km/h 9.0 mph /  14.5 km/h 81 % 0.00 in /  0 mm
06:57 46.4 °F /  8 °C 41.5 °F /  5.3 °C 30.27 in /  1024.9 hPa NW 2.0 mph /  3.2 km/h 9.0 mph /  14.5 km/h 83 % 0.01 in /  0.25 mm
07:02 46.0 °F /  7.8 °C 41.7 °F /  5.4 °C 30.28 in /  1025.3 hPa North 4.0 mph /  6.4 km/h 9.0 mph /  14.5 km/h 85 % 0.02 in /  0.51 mm
07:07 45.9 °F /  7.7 °C 41.9 °F /  5.5 °C 30.28 in /  1025.3 hPa NW 5.0 mph /  8 km/h 8.0 mph /  12.9 km/h 86 % 0.03 in /  0.76 mm
07:12 45.5 °F /  7.5 °C 42.1 °F /  5.6 °C 30.27 in /  1024.9 hPa NW 4.0 mph /  6.4 km/h 8.0 mph /  12.9 km/h 88 % 0.05 in /  1.27 mm
07:17 45.1 °F /  7.3 °C 42.4 °F /  5.8 °C 30.28 in /  1025.3 hPa North 3.0 mph /  4.8 km/h 9.0 mph /  14.5 km/h 90 % 0.07 in /  1.78 mm
07:22 44.8 °F /  7.1 °C 42.1 °F /  5.6 °C 30.28 in /  1025.3 hPa East 4.0 mph /  6.4 km/h 9.0 mph /  14.5 km/h 90 % 0.10 in /  2.54 mm
07:27 44.4 °F /  6.9 °C 42.3 °F /  5.7 °C 30.27 in /  1024.9 hPa NE 8.0 mph /  12.9 km/h 9.0 mph /  14.5 km/h 92 % 0.12 in /  3.05 mm
07:32 44.4 °F /  6.9 °C 42.3 °F /  5.7 °C 30.27 in /  1024.9 hPa Calm   9.0 mph /  14.5 km/h 92 % 0.12 in /  3.05 mm
07:37 44.2 °F /  6.8 °C 42.1 °F /  5.6 °C 30.29 in /  1025.6 hPa Calm   9.0 mph /  14.5 km/h 92 % 0.13 in /  3.3 mm
07:42 44.4 °F /  6.9 °C 42.4 °F /  5.8 °C 30.29 in /  1025.6 hPa NW 2.0 mph /  3.2 km/h 9.0 mph /  14.5 km/h 93 % 0.14 in /  3.56 mm
07:47 44.2 °F /  6.8 °C 42.3 °F /  5.7 °C 30.30 in /  1026 hPa NNW 2.0 mph /  3.2 km/h 8.0 mph /  12.9 km/h 93 % 0.15 in /  3.81 mm
07:52 44.1 °F /  6.7 °C 41.9 °F /  5.5 °C 30.28 in /  1025.3 hPa ENE 2.0 mph /  3.2 km/h 9.0 mph /  14.5 km/h 92 % 0.16 in /  4.06 mm
07:57 44.1 °F /  6.7 °C 41.9 °F /  5.5 °C 30.28 in /  1025.3 hPa North 3.0 mph /  4.8 km/h 10.0 mph /  16.1 km/h 92 % 0.16 in /  4.06 mm
08:02 44.1 °F /  6.7 °C 42.1 °F /  5.6 °C 30.27 in /  1024.9 hPa ENE 8.0 mph /  12.9 km/h 10.0 mph /  16.1 km/h 93 % 0.16 in /  4.06 mm
08:07 43.9 °F /  6.6 °C 41.9 °F /  5.5 °C 30.28 in /  1025.3 hPa NNW 2.0 mph /  3.2 km/h 10.0 mph /  16.1 km/h 93 % 0.16 in /  4.06 mm
08:12 43.9 °F /  6.6 °C 41.9 °F /  5.5 °C 30.29 in /  1025.6 hPa NW 3.0 mph /  4.8 km/h 10.0 mph /  16.1 km/h 93 % 0.15 in /  3.81 mm
08:17 43.9 °F /  6.6 °C 41.9 °F /  5.5 °C 30.30 in /  1026 hPa North 1.0 mph /  1.6 km/h 8.0 mph /  12.9 km/h 93 % 0.13 in /  3.3 mm
08:22 43.9 °F /  6.6 °C 41.9 °F /  5.5 °C 30.30 in /  1026 hPa NNE 1.0 mph /  1.6 km/h 11.0 mph /  17.7 km/h 93 % 0.11 in /  2.79 mm
08:27 43.7 °F /  6.5 °C 41.7 °F /  5.4 °C 30.29 in /  1025.6 hPa NW 2.0 mph /  3.2 km/h 11.0 mph /  17.7 km/h 93 % 0.10 in /  2.54 mm
08:32 43.7 °F /  6.5 °C 41.7 °F /  5.4 °C 30.28 in /  1025.3 hPa NNE 1.0 mph /  1.6 km/h 11.0 mph /  17.7 km/h 93 % 0.11 in /  2.79 mm
08:37 43.5 °F /  6.4 °C 41.7 °F /  5.4 °C 30.27 in /  1024.9 hPa North 6.0 mph /  9.7 km/h 9.0 mph /  14.5 km/h 93 % 0.10 in /  2.54 mm
08:42 43.5 °F /  6.4 °C 41.7 °F /  5.4 °C 30.29 in /  1025.6 hPa North 3.0 mph /  4.8 km/h 9.0 mph /  14.5 km/h 93 % 0.09 in /  2.29 mm
08:47 43.3 °F /  6.3 °C 41.5 °F /  5.3 °C 30.29 in /  1025.6 hPa NW 2.0 mph /  3.2 km/h 9.0 mph /  14.5 km/h 93 % 0.09 in /  2.29 mm
08:52 43.5 °F /  6.4 °C 41.7 °F /  5.4 °C 30.32 in /  1026.6 hPa Calm   9.0 mph /  14.5 km/h 93 % 0.08 in /  2.03 mm
08:57 43.5 °F /  6.4 °C 41.7 °F /  5.4 °C 30.33 in /  1027 hPa NNW 1.0 mph /  1.6 km/h 9.0 mph /  14.5 km/h 93 % 0.07 in /  1.78 mm
09:02 43.7 °F /  6.5 °C 42.1 °F /  5.6 °C 30.30 in /  1026 hPa NE 3.0 mph /  4.8 km/h 6.0 mph /  9.7 km/h 94 % 0.06 in /  1.52 mm
09:07 43.9 °F /  6.6 °C 42.3 °F /  5.7 °C 30.31 in /  1026.3 hPa NNE 2.0 mph /  3.2 km/h 8.0 mph /  12.9 km/h 94 % 0.05 in /  1.27 mm
09:12 43.7 °F /  6.5 °C 41.7 °F /  5.4 °C 30.31 in /  1026.3 hPa NNW 6.0 mph /  9.7 km/h 8.0 mph /  12.9 km/h 93 % 0.04 in /  1.02 mm
09:17 43.5 °F /  6.4 °C 41.7 °F /  5.4 °C 30.33 in /  1027 hPa NNW 2.0 mph /  3.2 km/h 10.0 mph /  16.1 km/h 93 % 0.05 in /  1.27 mm
09:22 43.5 °F /  6.4 °C 41.7 °F /  5.4 °C 30.33 in /  1027 hPa SW 1.0 mph /  1.6 km/h 10.0 mph /  16.1 km/h 93 % 0.04 in /  1.02 mm
09:27 43.5 °F /  6.4 °C 41.9 °F /  5.5 °C 30.33 in /  1027 hPa NNW 1.0 mph /  1.6 km/h 10.0 mph /  16.1 km/h 94 % 0.03 in /  0.76 mm
09:32 43.7 °F /  6.5 °C 42.1 °F /  5.6 °C 30.32 in /  1026.6 hPa North 2.0 mph /  3.2 km/h 8.0 mph /  12.9 km/h 94 % 0.02 in /  0.51 mm
09:37 43.7 °F /  6.5 °C 42.1 °F /  5.6 °C 30.34 in /  1027.3 hPa NW 4.0 mph /  6.4 km/h 9.0 mph /  14.5 km/h 94 % 0.02 in /  0.51 mm
09:42 43.5 °F /  6.4 °C 41.7 °F /  5.4 °C 30.37 in /  1028.3 hPa NNW 4.0 mph /  6.4 km/h 9.0 mph /  14.5 km/h 93 % 0.02 in /  0.51 mm
09:47 43.5 °F /  6.4 °C 41.7 °F /  5.4 °C 30.37 in /  1028.3 hPa NW 2.0 mph /  3.2 km/h 9.0 mph /  14.5 km/h 93 % 0.02 in /  0.51 mm
09:52 43.7 °F /  6.5 °C 42.1 °F /  5.6 °C 30.35 in /  1027.7 hPa NE 4.0 mph /  6.4 km/h 8.0 mph /  12.9 km/h 94 % 0.02 in /  0.51 mm
09:57 43.9 °F /  6.6 °C 42.3 °F /  5.7 °C 30.32 in /  1026.6 hPa NNE 5.0 mph /  8 km/h 8.0 mph /  12.9 km/h 94 % 0.04 in /  1.02 mm
10:02 43.7 °F /  6.5 °C 42.1 °F /  5.6 °C 30.34 in /  1027.3 hPa NNE 4.0 mph /  6.4 km/h 7.0 mph /  11.3 km/h 94 % 0.05 in /  1.27 mm
10:07 43.7 °F /  6.5 °C 42.1 °F /  5.6 °C 30.34 in /  1027.3 hPa NNW 1.0 mph /  1.6 km/h 8.0 mph /  12.9 km/h 94 % 0.06 in /  1.52 mm
10:12 43.9 °F /  6.6 °C 42.6 °F /  5.9 °C 30.34 in /  1027.3 hPa West 1.0 mph /  1.6 km/h 8.0 mph /  12.9 km/h 95 % 0.05 in /  1.27 mm
10:17 43.9 °F /  6.6 °C 42.6 °F /  5.9 °C 30.33 in /  1027 hPa NNW 4.0 mph /  6.4 km/h 8.0 mph /  12.9 km/h 95 % 0.05 in /  1.27 mm
10:22 43.9 °F /  6.6 °C 42.6 °F /  5.9 °C 30.33 in /  1027 hPa NNE 2.0 mph /  3.2 km/h 7.0 mph /  11.3 km/h 95 % 0.05 in /  1.27 mm
10:27 44.1 °F /  6.7 °C 42.8 °F /  6 °C 30.33 in /  1027 hPa East 3.0 mph /  4.8 km/h 7.0 mph /  11.3 km/h 95 % 0.06 in /  1.52 mm
10:32 44.1 °F /  6.7 °C 42.8 °F /  6 °C 30.32 in /  1026.6 hPa North 1.0 mph /  1.6 km/h 8.0 mph /  12.9 km/h 95 % 0.06 in /  1.52 mm
10:37 44.1 °F /  6.7 °C 42.8 °F /  6 °C 30.31 in /  1026.3 hPa NNE 3.0 mph /  4.8 km/h 8.0 mph /  12.9 km/h 95 % 0.06 in /  1.52 mm
10:42 44.1 °F /  6.7 °C 42.8 °F /  6 °C 30.33 in /  1027 hPa NNW 1.0 mph /  1.6 km/h 10.0 mph /  16.1 km/h 95 % 0.06 in /  1.52 mm
10:47 44.1 °F /  6.7 °C 42.8 °F /  6 °C 30.35 in /  1027.7 hPa Calm   10.0 mph /  16.1 km/h 95 % 0.05 in /  1.27 mm
10:52 44.2 °F /  6.8 °C 43.0 °F /  6.1 °C 30.36 in /  1028 hPa NNE 6.0 mph /  9.7 km/h 10.0 mph /  16.1 km/h 95 % 0.05 in /  1.27 mm
10:57 44.2 °F /  6.8 °C 43.0 °F /  6.1 °C 30.36 in /  1028 hPa East 3.0 mph /  4.8 km/h 7.0 mph /  11.3 km/h 95 % 0.03 in /  0.76 mm
11:02 44.2 °F /  6.8 °C 43.0 °F /  6.1 °C 30.35 in /  1027.7 hPa NNW 3.0 mph /  4.8 km/h 8.0 mph /  12.9 km/h 95 % 0.02 in /  0.51 mm
11:07 44.2 °F /  6.8 °C 43.0 °F /  6.1 °C 30.34 in /  1027.3 hPa NE 1.0 mph /  1.6 km/h 8.0 mph /  12.9 km/h 95 % 0.02 in /  0.51 mm
11:12 44.4 °F /  6.9 °C 43.2 °F /  6.2 °C 30.34 in /  1027.3 hPa North 3.0 mph /  4.8 km/h 8.0 mph /  12.9 km/h 95 % 0.02 in /  0.51 mm
11:17 44.4 °F /  6.9 °C 43.2 °F /  6.2 °C 30.34 in /  1027.3 hPa NNW 6.0 mph /  9.7 km/h 7.0 mph /  11.3 km/h 95 % 0.03 in /  0.76 mm
11:22 44.4 °F /  6.9 °C 43.2 °F /  6.2 °C 30.36 in /  1028 hPa NNW 1.0 mph /  1.6 km/h 7.0 mph /  11.3 km/h 95 % 0.03 in /  0.76 mm
11:27 44.6 °F /  7 °C 43.3 °F /  6.3 °C 30.36 in /  1028 hPa NNE 2.0 mph /  3.2 km/h 7.0 mph /  11.3 km/h 95 % 0.02 in /  0.51 mm
11:33 44.6 °F /  7 °C 43.0 °F /  6.1 °C 30.34 in /  1027.3 hPa NE 5.0 mph /  8 km/h 7.0 mph /  11.3 km/h 94 % 0.02 in /  0.51 mm
11:38 44.4 °F /  6.9 °C 42.8 °F /  6 °C 30.33 in /  1027 hPa NNW 2.0 mph /  3.2 km/h 8.0 mph /  12.9 km/h 94 % 0.02 in /  0.51 mm
11:43 44.6 °F /  7 °C 43.0 °F /  6.1 °C 30.34 in /  1027.3 hPa Calm   8.0 mph /  12.9 km/h 94 % 0.03 in /  0.76 mm
11:48 44.4 °F /  6.9 °C 42.4 °F /  5.8 °C 30.34 in /  1027.3 hPa NW 1.0 mph /  1.6 km/h 8.0 mph /  12.9 km/h 93 % 0.03 in /  0.76 mm
11:53 44.8 °F /  7.1 °C 42.8 °F /  6 °C 30.32 in /  1026.6 hPa North 2.0 mph /  3.2 km/h 9.0 mph /  14.5 km/h 93 % 0.03 in /  0.76 mm
11:58 44.8 °F /  7.1 °C 42.8 °F /  6 °C 30.30 in /  1026 hPa North 3.0 mph /  4.8 km/h 10.0 mph /  16.1 km/h 93 % 0.03 in /  0.76 mm
12:03 44.6 °F /  7 °C 42.6 °F /  5.9 °C 30.30 in /  1026 hPa NNE 2.0 mph /  3.2 km/h 10.0 mph /  16.1 km/h 93 % 0.03 in /  0.76 mm
12:08 44.6 °F /  7 °C 42.6 °F /  5.9 °C 30.31 in /  1026.3 hPa NNW 1.0 mph /  1.6 km/h 10.0 mph /  16.1 km/h 93 % 0.02 in /  0.51 mm
12:13 44.8 °F /  7.1 °C 43.2 °F /  6.2 °C 30.31 in /  1026.3 hPa ENE 9.0 mph /  14.5 km/h 9.0 mph /  14.5 km/h 94 % 0.02 in /  0.51 mm
12:18 44.6 °F /  7 °C 42.6 °F /  5.9 °C 30.30 in /  1026 hPa NNW 4.0 mph /  6.4 km/h 11.0 mph /  17.7 km/h 93 % 0.01 in /  0.25 mm
12:28 44.6 °F /  7 °C 42.6 °F /  5.9 °C 30.32 in /  1026.6 hPa NNE 1.0 mph /  1.6 km/h 11.0 mph /  17.7 km/h 93 % 0.01 in /  0.25 mm
12:33 44.8 °F /  7.1 °C 42.8 °F /  6 °C 30.29 in /  1025.6 hPa NNE 1.0 mph /  1.6 km/h 6.0 mph /  9.7 km/h 93 % 0.01 in /  0.25 mm
12:38 44.4 °F /  6.9 °C 42.4 °F /  5.8 °C 30.29 in /  1025.6 hPa NNW 10.0 mph /  16.1 km/h 10.0 mph /  16.1 km/h 93 % 0.01 in /  0.25 mm
12:43 44.4 °F /  6.9 °C 42.4 °F /  5.8 °C 30.30 in /  1026 hPa NNE 1.0 mph /  1.6 km/h 10.0 mph /  16.1 km/h 93 % 0.01 in /  0.25 mm
12:48 44.2 °F /  6.8 °C 42.3 °F /  5.7 °C 30.31 in /  1026.3 hPa NNW 2.0 mph /  3.2 km/h 10.0 mph /  16.1 km/h 93 % 0.01 in /  0.25 mm
12:53 44.2 °F /  6.8 °C 42.3 °F /  5.7 °C 30.28 in /  1025.3 hPa NNE 2.0 mph /  3.2 km/h 10.0 mph /  16.1 km/h 93 % 0.01 in /  0.25 mm
12:58 44.2 °F /  6.8 °C 42.3 °F /  5.7 °C 30.28 in /  1025.3 hPa Calm   9.0 mph /  14.5 km/h 93 % 0.01 in /  0.25 mm
13:03 44.2 °F /  6.8 °C 42.3 °F /  5.7 °C 30.30 in /  1026 hPa NNW 3.0 mph /  4.8 km/h 10.0 mph /  16.1 km/h 93 % 0.02 in /  0.51 mm
13:08 43.9 °F /  6.6 °C 41.7 °F /  5.4 °C 30.30 in /  1026 hPa NNE 3.0 mph /  4.8 km/h 10.0 mph /  16.1 km/h 92 % 0.03 in /  0.76 mm
13:13 43.9 °F /  6.6 °C 41.9 °F /  5.5 °C 30.30 in /  1026 hPa Calm   10.0 mph /  16.1 km/h 93 % 0.03 in /  0.76 mm
13:18 43.7 °F /  6.5 °C 41.7 °F /  5.4 °C 30.29 in /  1025.6 hPa NNE 8.0 mph /  12.9 km/h 9.0 mph /  14.5 km/h 93 % 0.03 in /  0.76 mm
13:23 43.5 °F /  6.4 °C 41.7 °F /  5.4 °C 30.29 in /  1025.6 hPa NE 1.0 mph /  1.6 km/h 9.0 mph /  14.5 km/h 93 % 0.04 in /  1.02 mm
13:28 43.3 °F /  6.3 °C 41.5 °F /  5.3 °C 30.30 in /  1026 hPa NNW 5.0 mph /  8 km/h 9.0 mph /  14.5 km/h 93 % 0.04 in /  1.02 mm
13:33 43.3 °F /  6.3 °C 41.5 °F /  5.3 °C 30.29 in /  1025.6 hPa North 5.0 mph /  8 km/h 9.0 mph /  14.5 km/h 93 % 0.04 in /  1.02 mm
13:38 43.2 °F /  6.2 °C 41.0 °F /  5 °C 30.29 in /  1025.6 hPa NW 6.0 mph /  9.7 km/h 10.0 mph /  16.1 km/h 92 % 0.04 in /  1.02 mm
13:43 43.2 °F /  6.2 °C 41.4 °F /  5.2 °C 30.30 in /  1026 hPa NNW 6.0 mph /  9.7 km/h 10.0 mph /  16.1 km/h 93 % 0.04 in /  1.02 mm
13:48 43.0 °F /  6.1 °C 40.5 °F /  4.7 °C 30.30 in /  1026 hPa NNW 1.0 mph /  1.6 km/h 13.0 mph /  20.9 km/h 91 % 0.04 in /  1.02 mm
13:53 42.8 °F /  6 °C 40.6 °F /  4.8 °C 30.29 in /  1025.6 hPa NNW 2.0 mph /  3.2 km/h 13.0 mph /  20.9 km/h 92 % 0.04 in /  1.02 mm
13:58 43.0 °F /  6.1 °C 40.8 °F /  4.9 °C 30.30 in /  1026 hPa North 4.0 mph /  6.4 km/h 15.0 mph /  24.1 km/h 92 % 0.04 in /  1.02 mm
14:03 42.8 °F /  6 °C 40.6 °F /  4.8 °C 30.29 in /  1025.6 hPa NNW 4.0 mph /  6.4 km/h 15.0 mph /  24.1 km/h 92 % 0.03 in /  0.76 mm
14:08 42.6 °F /  5.9 °C 40.5 °F /  4.7 °C 30.30 in /  1026 hPa NNW 3.0 mph /  4.8 km/h 15.0 mph /  24.1 km/h 92 % 0.02 in /  0.51 mm
14:13 42.6 °F /  5.9 °C 40.5 °F /  4.7 °C 30.30 in /  1026 hPa North 3.0 mph /  4.8 km/h 11.0 mph /  17.7 km/h 92 % 0.02 in /  0.51 mm
14:18 42.8 °F /  6 °C 41.0 °F /  5 °C 30.28 in /  1025.3 hPa NNW 1.0 mph /  1.6 km/h 11.0 mph /  17.7 km/h 93 % 0.02 in /  0.51 mm
14:23 42.6 °F /  5.9 °C 40.5 °F /  4.7 °C 30.30 in /  1026 hPa NW 2.0 mph /  3.2 km/h 11.0 mph /  17.7 km/h 92 % 0.01 in /  0.25 mm
14:28 42.4 °F /  5.8 °C 40.3 °F /  4.6 °C 30.30 in /  1026 hPa Calm   10.0 mph /  16.1 km/h 92 % 0.02 in /  0.51 mm
14:33 42.3 °F /  5.7 °C 40.1 °F /  4.5 °C 30.29 in /  1025.6 hPa NNW 1.0 mph /  1.6 km/h 10.0 mph /  16.1 km/h 92 % 0.03 in /  0.76 mm
14:38 42.1 °F /  5.6 °C 39.9 °F /  4.4 °C 30.30 in /  1026 hPa Calm   10.0 mph /  16.1 km/h 92 % 0.03 in /  0.76 mm
14:43 41.9 °F /  5.5 °C 39.7 °F /  4.3 °C 30.30 in /  1026 hPa North 5.0 mph /  8 km/h 10.0 mph /  16.1 km/h 92 % 0.02 in /  0.51 mm
14:48 41.7 °F /  5.4 °C 39.2 °F /  4 °C 30.30 in /  1026 hPa WNW 7.0 mph /  11.3 km/h 9.0 mph /  14.5 km/h 91 % 0.02 in /  0.51 mm
14:53 41.7 °F /  5.4 °C 39.6 °F /  4.2 °C 30.30 in /  1026 hPa NNW 1.0 mph /  1.6 km/h 9.0 mph /  14.5 km/h 92 % 0.02 in /  0.51 mm
14:58 41.5 °F /  5.3 °C 39.2 °F /  4 °C 30.31 in /  1026.3 hPa NNE 6.0 mph /  9.7 km/h 9.0 mph /  14.5 km/h 91 % 0.03 in /  0.76 mm
15:03 41.5 °F /  5.3 °C 39.4 °F /  4.1 °C 30.30 in /  1026 hPa NNW 3.0 mph /  4.8 km/h 9.0 mph /  14.5 km/h 92 % 0.03 in /  0.76 mm
15:08 41.5 °F /  5.3 °C 39.4 °F /  4.1 °C 30.30 in /  1026 hPa NNW 2.0 mph /  3.2 km/h 10.0 mph /  16.1 km/h 92 % 0.03 in /  0.76 mm
15:13 41.4 °F /  5.2 °C 39.2 °F /  4 °C 30.29 in /  1025.6 hPa North 1.0 mph /  1.6 km/h 10.0 mph /  16.1 km/h 92 % 0.04 in /  1.02 mm
15:18 41.4 °F /  5.2 °C 39.2 °F /  4 °C 30.30 in /  1026 hPa NE 2.0 mph /  3.2 km/h 10.0 mph /  16.1 km/h 92 % 0.04 in /  1.02 mm
15:23 41.4 °F /  5.2 °C 39.2 °F /  4 °C 30.30 in /  1026 hPa NNW 3.0 mph /  4.8 km/h 10.0 mph /  16.1 km/h 92 % 0.03 in /  0.76 mm
15:28 41.4 °F /  5.2 °C 39.2 °F /  4 °C 30.30 in /  1026 hPa WNW 3.0 mph /  4.8 km/h 10.0 mph /  16.1 km/h 92 % 0.03 in /  0.76 mm
15:33 41.4 °F /  5.2 °C 39.2 °F /  4 °C 30.31 in /  1026.3 hPa NNE 1.0 mph /  1.6 km/h 10.0 mph /  16.1 km/h 92 % 0.02 in /  0.51 mm
15:38 41.4 °F /  5.2 °C 39.2 °F /  4 °C 30.30 in /  1026 hPa NNW 4.0 mph /  6.4 km/h 10.0 mph /  16.1 km/h 92 % 0.02 in /  0.51 mm
15:43 41.2 °F /  5.1 °C 39.0 °F /  3.9 °C 30.30 in /  1026 hPa NW 3.0 mph /  4.8 km/h 10.0 mph /  16.1 km/h 92 % 0.02 in /  0.51 mm
15:49 41.2 °F /  5.1 °C 39.0 °F /  3.9 °C 30.30 in /  1026 hPa North 2.0 mph /  3.2 km/h 10.0 mph /  16.1 km/h 92 % 0.03 in /  0.76 mm
15:54 41.2 °F /  5.1 °C 39.0 °F /  3.9 °C 30.30 in /  1026 hPa NNW 3.0 mph /  4.8 km/h 10.0 mph /  16.1 km/h 92 % 0.03 in /  0.76 mm
15:59 41.2 °F /  5.1 °C 39.0 °F /  3.9 °C 30.30 in /  1026 hPa NW 5.0 mph /  8 km/h 8.0 mph /  12.9 km/h 92 % 0.02 in /  0.51 mm
16:04 41.0 °F /  5 °C 38.8 °F /  3.8 °C 30.30 in /  1026 hPa North 3.0 mph /  4.8 km/h 9.0 mph /  14.5 km/h 92 % 0.02 in /  0.51 mm
16:09 41.0 °F /  5 °C 38.8 °F /  3.8 °C 30.30 in /  1026 hPa NW 2.0 mph /  3.2 km/h 9.0 mph /  14.5 km/h 92 % 0.02 in /  0.51 mm
16:14 41.2 °F /  5.1 °C 39.4 °F /  4.1 °C 30.30 in /  1026 hPa NNW 2.0 mph /  3.2 km/h 9.0 mph /  14.5 km/h 93 % 0.01 in /  0.25 mm
16:19 41.2 °F /  5.1 °C 39.0 °F /  3.9 °C 30.29 in /  1025.6 hPa NNE 2.0 mph /  3.2 km/h 6.0 mph /  9.7 km/h 92 % 0.01 in /  0.25 mm
16:24 41.2 °F /  5.1 °C 39.0 °F /  3.9 °C 30.30 in /  1026 hPa NNE 3.0 mph /  4.8 km/h 7.0 mph /  11.3 km/h 92 % 0.01 in /  0.25 mm
16:29 41.2 °F /  5.1 °C 39.0 °F /  3.9 °C 30.30 in /  1026 hPa North 2.0 mph /  3.2 km/h 7.0 mph /  11.3 km/h 92 % 0.01 in /  0.25 mm
16:34 41.2 °F /  5.1 °C 39.0 °F /  3.9 °C 30.30 in /  1026 hPa East 1.0 mph /  1.6 km/h 7.0 mph /  11.3 km/h 92 % 0.01 in /  0.25 mm
16:39 41.2 °F /  5.1 °C 39.0 °F /  3.9 °C 30.29 in /  1025.6 hPa WNW 2.0 mph /  3.2 km/h 6.0 mph /  9.7 km/h 92 % 0.01 in /  0.25 mm
16:44 41.2 °F /  5.1 °C 39.0 °F /  3.9 °C 30.30 in /  1026 hPa NNW 3.0 mph /  4.8 km/h 8.0 mph /  12.9 km/h 92 % 0.01 in /  0.25 mm
16:49 41.2 °F /  5.1 °C 39.0 °F /  3.9 °C 30.29 in /  1025.6 hPa NNW 1.0 mph /  1.6 km/h 9.0 mph /  14.5 km/h 92 % 0.00 in /  0 mm
16:54 41.4 °F /  5.2 °C 39.2 °F /  4 °C 30.29 in /  1025.6 hPa North 2.0 mph /  3.2 km/h 9.0 mph /  14.5 km/h 92 % 0.00 in /  0 mm
16:59 41.4 °F /  5.2 °C 39.6 °F /  4.2 °C 30.30 in /  1026 hPa WNW 2.0 mph /  3.2 km/h 9.0 mph /  14.5 km/h 93 % 0.00 in /  0 mm
17:04 41.4 °F /  5.2 °C 39.2 °F /  4 °C 30.30 in /  1026 hPa Calm   7.0 mph /  11.3 km/h 92 % 0.00 in /  0 mm
17:09 41.4 °F /  5.2 °C 39.2 °F /  4 °C 30.30 in /  1026 hPa NW 3.0 mph /  4.8 km/h 7.0 mph /  11.3 km/h 92 % 0.00 in /  0 mm
17:14 41.2 °F /  5.1 °C 39.0 °F /  3.9 °C 30.30 in /  1026 hPa NNE 1.0 mph /  1.6 km/h 8.0 mph /  12.9 km/h 92 % 0.00 in /  0 mm
17:19 41.2 °F /  5.1 °C 39.0 °F /  3.9 °C 30.30 in /  1026 hPa NE 3.0 mph /  4.8 km/h 8.0 mph /  12.9 km/h 92 % 0.00 in /  0 mm
17:24 41.2 °F /  5.1 °C 39.0 °F /  3.9 °C 30.30 in /  1026 hPa North 3.0 mph /  4.8 km/h 8.0 mph /  12.9 km/h 92 % 0.00 in /  0 mm
17:29 41.2 °F /  5.1 °C 39.0 °F /  3.9 °C 30.30 in /  1026 hPa NNW 1.0 mph /  1.6 km/h 9.0 mph /  14.5 km/h 92 % 0.00 in /  0 mm
17:34 41.0 °F /  5 °C 38.8 °F /  3.8 °C 30.30 in /  1026 hPa NW 2.0 mph /  3.2 km/h 10.0 mph /  16.1 km/h 92 % 0.01 in /  0.25 mm
17:39 40.8 °F /  4.9 °C 39.0 °F /  3.9 °C 30.30 in /  1026 hPa ENE 3.0 mph /  4.8 km/h 10.0 mph /  16.1 km/h 93 % 0.01 in /  0.25 mm
17:44 40.8 °F /  4.9 °C 39.0 °F /  3.9 °C 30.30 in /  1026 hPa NNW 3.0 mph /  4.8 km/h 10.0 mph /  16.1 km/h 93 % 0.01 in /  0.25 mm
17:49 41.0 °F /  5 °C 39.2 °F /  4 °C 30.30 in /  1026 hPa Calm   8.0 mph /  12.9 km/h 93 % 0.01 in /  0.25 mm
17:54 41.2 °F /  5.1 °C 39.4 °F /  4.1 °C 30.30 in /  1026 hPa Calm   9.0 mph /  14.5 km/h 93 % 0.01 in /  0.25 mm
17:59 41.2 °F /  5.1 °C 39.4 °F /  4.1 °C 30.30 in /  1026 hPa NE 2.0 mph /  3.2 km/h 9.0 mph /  14.5 km/h 93 % 0.01 in /  0.25 mm
18:04 41.2 °F /  5.1 °C 39.6 °F /  4.2 °C 30.30 in /  1026 hPa North 2.0 mph /  3.2 km/h 9.0 mph /  14.5 km/h 94 % 0.01 in /  0.25 mm
18:09 41.2 °F /  5.1 °C 39.6 °F /  4.2 °C 30.30 in /  1026 hPa North 2.0 mph /  3.2 km/h 8.0 mph /  12.9 km/h 94 % 0.01 in /  0.25 mm
18:14 41.2 °F /  5.1 °C 39.6 °F /  4.2 °C 30.29 in /  1025.6 hPa NE 1.0 mph /  1.6 km/h 8.0 mph /  12.9 km/h 94 % 0.01 in /  0.25 mm
18:19 41.2 °F /  5.1 °C 39.6 °F /  4.2 °C 30.29 in /  1025.6 hPa Calm   7.0 mph /  11.3 km/h 94 % 0.01 in /  0.25 mm
18:24 41.4 °F /  5.2 °C 39.7 °F /  4.3 °C 30.29 in /  1025.6 hPa Calm   7.0 mph /  11.3 km/h 94 % 0.01 in /  0.25 mm
18:29 41.4 °F /  5.2 °C 39.7 °F /  4.3 °C 30.30 in /  1026 hPa Calm   6.0 mph /  9.7 km/h 94 % 0.01 in /  0.25 mm
18:34 41.4 °F /  5.2 °C 39.7 °F /  4.3 °C 30.30 in /  1026 hPa NNE 3.0 mph /  4.8 km/h 6.0 mph /  9.7 km/h 94 % 0.00 in /  0 mm
18:39 41.4 °F /  5.2 °C 39.7 °F /  4.3 °C 30.30 in /  1026 hPa NNW 2.0 mph /  3.2 km/h 6.0 mph /  9.7 km/h 94 % 0.00 in /  0 mm
18:44 41.4 °F /  5.2 °C 39.6 °F /  4.2 °C 30.30 in /  1026 hPa Calm   6.0 mph /  9.7 km/h 93 % 0.00 in /  0 mm
18:49 41.5 °F /  5.3 °C 39.7 °F /  4.3 °C 30.30 in /  1026 hPa NNW 2.0 mph /  3.2 km/h 6.0 mph /  9.7 km/h 93 % 0.00 in /  0 mm
18:54 41.5 °F /  5.3 °C 39.9 °F /  4.4 °C 30.31 in /  1026.3 hPa NE 2.0 mph /  3.2 km/h 6.0 mph /  9.7 km/h 94 % 0.00 in /  0 mm
18:59 41.5 °F /  5.3 °C 39.7 °F /  4.3 °C 30.30 in /  1026 hPa NNE 2.0 mph /  3.2 km/h 5.0 mph /  8 km/h 93 % 0.00 in /  0 mm
19:04 41.5 °F /  5.3 °C 39.7 °F /  4.3 °C 30.31 in /  1026.3 hPa NNW 1.0 mph /  1.6 km/h 6.0 mph /  9.7 km/h 93 % 0.00 in /  0 mm
19:09 41.5 °F /  5.3 °C 39.7 °F /  4.3 °C 30.31 in /  1026.3 hPa NE 2.0 mph /  3.2 km/h 6.0 mph /  9.7 km/h 93 % 0.00 in /  0 mm
19:14 41.5 °F /  5.3 °C 39.7 °F /  4.3 °C 30.31 in /  1026.3 hPa NNW 3.0 mph /  4.8 km/h 8.0 mph /  12.9 km/h 93 % 0.00 in /  0 mm
19:19 41.4 °F /  5.2 °C 39.6 °F /  4.2 °C 30.31 in /  1026.3 hPa NNE 4.0 mph /  6.4 km/h 10.0 mph /  16.1 km/h 93 % 0.00 in /  0 mm
19:24 41.4 °F /  5.2 °C 39.6 °F /  4.2 °C 30.32 in /  1026.6 hPa WNW 2.0 mph /  3.2 km/h 10.0 mph /  16.1 km/h 93 % 0.00 in /  0 mm
19:30 41.4 °F /  5.2 °C 39.6 °F /  4.2 °C 30.32 in /  1026.6 hPa NNW 6.0 mph /  9.7 km/h 10.0 mph /  16.1 km/h 93 % 0.00 in /  0 mm
19:35 41.4 °F /  5.2 °C 39.6 °F /  4.2 °C 30.32 in /  1026.6 hPa NNE 2.0 mph /  3.2 km/h 8.0 mph /  12.9 km/h 93 % 0.00 in /  0 mm
19:40 41.2 °F /  5.1 °C 39.4 °F /  4.1 °C 30.32 in /  1026.6 hPa North 2.0 mph /  3.2 km/h 8.0 mph /  12.9 km/h 93 % 0.00 in /  0 mm
19:45 41.2 °F /  5.1 °C 39.4 °F /  4.1 °C 30.32 in /  1026.6 hPa NW 3.0 mph /  4.8 km/h 9.0 mph /  14.5 km/h 93 % 0.00 in /  0 mm
19:50 41.4 °F /  5.2 °C 39.6 °F /  4.2 °C 30.32 in /  1026.6 hPa North 2.0 mph /  3.2 km/h 9.0 mph /  14.5 km/h 93 % 0.00 in /  0 mm
19:55 41.4 °F /  5.2 °C 39.6 °F /  4.2 °C 30.32 in /  1026.6 hPa NNE 1.0 mph /  1.6 km/h 5.0 mph /  8 km/h 93 % 0.00 in /  0 mm
20:00 41.4 °F /  5.2 °C 39.6 °F /  4.2 °C 30.32 in /  1026.6 hPa NNW 1.0 mph /  1.6 km/h 4.0 mph /  6.4 km/h 93 % 0.01 in /  0.25 mm
20:05 41.4 °F /  5.2 °C 39.7 °F /  4.3 °C 30.32 in /  1026.6 hPa NW 2.0 mph /  3.2 km/h 5.0 mph /  8 km/h 94 % 0.01 in /  0.25 mm
20:10 41.5 °F /  5.3 °C 39.9 °F /  4.4 °C 30.33 in /  1027 hPa NW 2.0 mph /  3.2 km/h 6.0 mph /  9.7 km/h 94 % 0.01 in /  0.25 mm
20:12 41.4 °F /  5.2 °C 39.7 °F /  4.3 °C 30.33 in /  1027 hPa NNW 3.0 mph /  4.8 km/h 6.0 mph /  9.7 km/h 94 % 0.01 in /  0.25 mm
20:17 41.5 °F /  5.3 °C 40.3 °F /  4.6 °C 30.33 in /  1027 hPa NW 1.0 mph /  1.6 km/h 7.0 mph /  11.3 km/h 95 % 0.01 in /  0.25 mm
20:22 41.4 °F /  5.2 °C 40.1 °F /  4.5 °C 30.33 in /  1027 hPa NW 2.0 mph /  3.2 km/h 7.0 mph /  11.3 km/h 95 % 0.01 in /  0.25 mm
20:27 41.4 °F /  5.2 °C 40.1 °F /  4.5 °C 30.32 in /  1026.6 hPa NW 2.0 mph /  3.2 km/h 7.0 mph /  11.3 km/h 95 % 0.02 in /  0.51 mm
20:32 41.4 °F /  5.2 °C 40.1 °F /  4.5 °C 30.32 in /  1026.6 hPa NNW 5.0 mph /  8 km/h 6.0 mph /  9.7 km/h 95 % 0.02 in /  0.51 mm
20:33 41.4 °F /  5.2 °C 40.1 °F /  4.5 °C 30.32 in /  1026.6 hPa NW 4.0 mph /  6.4 km/h 6.0 mph /  9.7 km/h 95 % 0.02 in /  0.51 mm
20:38 41.4 °F /  5.2 °C 40.1 °F /  4.5 °C 30.32 in /  1026.6 hPa NNE 4.0 mph /  6.4 km/h 6.0 mph /  9.7 km/h 95 % 0.02 in /  0.51 mm
20:43 41.5 °F /  5.3 °C 40.5 °F /  4.7 °C 30.32 in /  1026.6 hPa NNW 1.0 mph /  1.6 km/h 6.0 mph /  9.7 km/h 96 % 0.02 in /  0.51 mm
20:48 41.5 °F /  5.3 °C 40.5 °F /  4.7 °C 30.32 in /  1026.6 hPa North 2.0 mph /  3.2 km/h 6.0 mph /  9.7 km/h 96 % 0.03 in /  0.76 mm
20:53 41.5 °F /  5.3 °C 40.5 °F /  4.7 °C 30.33 in /  1027 hPa NW 2.0 mph /  3.2 km/h 8.0 mph /  12.9 km/h 96 % 0.03 in /  0.76 mm
20:58 41.5 °F /  5.3 °C 40.5 °F /  4.7 °C 30.32 in /  1026.6 hPa NW 1.0 mph /  1.6 km/h 8.0 mph /  12.9 km/h 96 % 0.03 in /  0.76 mm
21:03 41.5 °F /  5.3 °C 40.5 °F /  4.7 °C 30.33 in /  1027 hPa NNW 4.0 mph /  6.4 km/h 8.0 mph /  12.9 km/h 96 % 0.02 in /  0.51 mm
21:08 41.7 °F /  5.4 °C 40.6 °F /  4.8 °C 30.33 in /  1027 hPa NNW 3.0 mph /  4.8 km/h 7.0 mph /  11.3 km/h 96 % 0.02 in /  0.51 mm
21:13 41.7 °F /  5.4 °C 40.6 °F /  4.8 °C 30.33 in /  1027 hPa NW 1.0 mph /  1.6 km/h 7.0 mph /  11.3 km/h 96 % 0.02 in /  0.51 mm
21:18 41.7 °F /  5.4 °C 40.6 °F /  4.8 °C 30.34 in /  1027.3 hPa WNW 1.0 mph /  1.6 km/h 7.0 mph /  11.3 km/h 96 % 0.02 in /  0.51 mm
21:22 41.7 °F /  5.4 °C 40.6 °F /  4.8 °C 30.33 in /  1027 hPa NNW 4.0 mph /  6.4 km/h 7.0 mph /  11.3 km/h 96 % 0.02 in /  0.51 mm
21:23 41.7 °F /  5.4 °C 40.6 °F /  4.8 °C 30.33 in /  1027 hPa North 1.0 mph /  1.6 km/h 7.0 mph /  11.3 km/h 96 % 0.02 in /  0.51 mm
21:28 41.7 °F /  5.4 °C 40.6 °F /  4.8 °C 30.34 in /  1027.3 hPa NW 1.0 mph /  1.6 km/h 7.0 mph /  11.3 km/h 96 % 0.01 in /  0.25 mm
21:33 41.7 °F /  5.4 °C 40.6 °F /  4.8 °C 30.34 in /  1027.3 hPa NNW 2.0 mph /  3.2 km/h 7.0 mph /  11.3 km/h 96 % 0.02 in /  0.51 mm
21:38 41.7 °F /  5.4 °C 40.6 °F /  4.8 °C 30.33 in /  1027 hPa NW 1.0 mph /  1.6 km/h 6.0 mph /  9.7 km/h 96 % 0.02 in /  0.51 mm
21:43 41.7 °F /  5.4 °C 40.5 °F /  4.7 °C 30.33 in /  1027 hPa NW 2.0 mph /  3.2 km/h 6.0 mph /  9.7 km/h 95 % 0.02 in /  0.51 mm
21:48 41.7 °F /  5.4 °C 40.5 °F /  4.7 °C 30.33 in /  1027 hPa NW 3.0 mph /  4.8 km/h 8.0 mph /  12.9 km/h 95 % 0.01 in /  0.25 mm
21:53 41.7 °F /  5.4 °C 40.5 °F /  4.7 °C 30.33 in /  1027 hPa NW 1.0 mph /  1.6 km/h 8.0 mph /  12.9 km/h 95 % 0.01 in /  0.25 mm
21:58 41.7 °F /  5.4 °C 40.5 °F /  4.7 °C 30.33 in /  1027 hPa Calm   8.0 mph /  12.9 km/h 95 % 0.01 in /  0.25 mm
22:03 41.7 °F /  5.4 °C 40.5 °F /  4.7 °C 30.34 in /  1027.3 hPa NW 1.0 mph /  1.6 km/h 6.0 mph /  9.7 km/h 95 % 0.01 in /  0.25 mm
22:08 41.7 °F /  5.4 °C 40.5 °F /  4.7 °C 30.34 in /  1027.3 hPa WNW 2.0 mph /  3.2 km/h 6.0 mph /  9.7 km/h 95 % 0.01 in /  0.25 mm
22:13 41.9 °F /  5.5 °C 40.6 °F /  4.8 °C 30.34 in /  1027.3 hPa NW 1.0 mph /  1.6 km/h 4.0 mph /  6.4 km/h 95 % 0.01 in /  0.25 mm
22:18 41.9 °F /  5.5 °C 40.6 °F /  4.8 °C 30.34 in /  1027.3 hPa NNW 1.0 mph /  1.6 km/h 5.0 mph /  8 km/h 95 % 0.01 in /  0.25 mm
22:23 41.9 °F /  5.5 °C 40.6 °F /  4.8 °C 30.34 in /  1027.3 hPa NNW 1.0 mph /  1.6 km/h 5.0 mph /  8 km/h 95 % 0.01 in /  0.25 mm
22:28 42.1 °F /  5.6 °C 40.8 °F /  4.9 °C 30.34 in /  1027.3 hPa NW 2.0 mph /  3.2 km/h 5.0 mph /  8 km/h 95 % 0.02 in /  0.51 mm
22:33 42.1 °F /  5.6 °C 40.8 °F /  4.9 °C 30.34 in /  1027.3 hPa NW 1.0 mph /  1.6 km/h 4.0 mph /  6.4 km/h 95 % 0.01 in /  0.25 mm
22:38 42.1 °F /  5.6 °C 40.8 °F /  4.9 °C 30.34 in /  1027.3 hPa NNW 3.0 mph /  4.8 km/h 3.0 mph /  4.8 km/h 95 % 0.01 in /  0.25 mm
22:43 42.1 °F /  5.6 °C 40.8 °F /  4.9 °C 30.34 in /  1027.3 hPa NNW 3.0 mph /  4.8 km/h 4.0 mph /  6.4 km/h 95 % 0.01 in /  0.25 mm
22:48 41.9 °F /  5.5 °C 40.6 °F /  4.8 °C 30.34 in /  1027.3 hPa NNW 2.0 mph /  3.2 km/h 4.0 mph /  6.4 km/h 95 % 0.01 in /  0.25 mm
22:53 42.1 °F /  5.6 °C 40.8 °F /  4.9 °C 30.33 in /  1027 hPa NNW 2.0 mph /  3.2 km/h 4.0 mph /  6.4 km/h 95 % 0.01 in /  0.25 mm
22:58 42.1 °F /  5.6 °C 40.8 °F /  4.9 °C 30.33 in /  1027 hPa NNW 1.0 mph /  1.6 km/h 5.0 mph /  8 km/h 95 % 0.01 in /  0.25 mm
23:03 42.1 °F /  5.6 °C 40.8 °F /  4.9 °C 30.33 in /  1027 hPa NE 1.0 mph /  1.6 km/h 5.0 mph /  8 km/h 95 % 0.01 in /  0.25 mm
23:08 42.1 °F /  5.6 °C 40.8 °F /  4.9 °C 30.33 in /  1027 hPa NW 2.0 mph /  3.2 km/h 6.0 mph /  9.7 km/h 95 % 0.01 in /  0.25 mm
23:13 42.1 °F /  5.6 °C 40.8 °F /  4.9 °C 30.32 in /  1026.6 hPa NW 1.0 mph /  1.6 km/h 6.0 mph /  9.7 km/h 95 % 0.01 in /  0.25 mm
23:18 42.1 °F /  5.6 °C 40.8 °F /  4.9 °C 30.33 in /  1027 hPa NNW 1.0 mph /  1.6 km/h 6.0 mph /  9.7 km/h 95 % 0.01 in /  0.25 mm
23:23 42.1 °F /  5.6 °C 40.8 °F /  4.9 °C 30.32 in /  1026.6 hPa NNW 2.0 mph /  3.2 km/h 5.0 mph /  8 km/h 95 % 0.01 in /  0.25 mm
23:28 42.1 °F /  5.6 °C 40.8 °F /  4.9 °C 30.32 in /  1026.6 hPa North 2.0 mph /  3.2 km/h 4.0 mph /  6.4 km/h 95 % 0.00 in /  0 mm
23:33 42.1 °F /  5.6 °C 40.8 °F /  4.9 °C 30.32 in /  1026.6 hPa NNW 1.0 mph /  1.6 km/h 4.0 mph /  6.4 km/h 95 % 0.00 in /  0 mm
23:38 42.1 °F /  5.6 °C 40.8 °F /  4.9 °C 30.32 in /  1026.6 hPa NW 2.0 mph /  3.2 km/h 4.0 mph /  6.4 km/h 95 % 0.00 in /  0 mm
23:43 42.1 °F /  5.6 °C 40.8 °F /  4.9 °C 30.32 in /  1026.6 hPa Calm   3.0 mph /  4.8 km/h 95 % 0.00 in /  0 mm
23:48 42.1 °F /  5.6 °C 40.8 °F /  4.9 °C 30.32 in /  1026.6 hPa NNW 1.0 mph /  1.6 km/h 3.0 mph /  4.8 km/h 95 % 0.00 in /  0 mm
23:53 42.1 °F /  5.6 °C 40.8 °F /  4.9 °C 30.32 in /  1026.6 hPa NNW 2.0 mph /  3.2 km/h 5.0 mph /  8 km/h 95 % 0.00 in /  0 mm
23:58 42.1 °F /  5.6 °C 40.8 °F /  4.9 °C 30.32 in /  1026.6 hPa NNW 3.0 mph /  4.8 km/h 5.0 mph /  8 km/h 95 % 0.00 in /  0 mm
Spring, Texas: Villages of Bridgestone
Compliments of Weather Underground - 2.75 mb

Script developed by  Jim McMurry - jmcmurry@mwt.net Adapted for the template by  Wim van der Kuil - Leuven-Template.eu

You find our weather info also at:

UK Metoffice

WeatherCloud

Weather Underground

Mid-South Weather Network

AWEKAS

Citizen Weather Observer Program (CWOP)

HAMweather, WeatherForYou, PWS Weather

Equipment we use:

Weather-station
Davis Vantage Vue

Weather-program
Meteohub

Weather-server
Debian 7.9 x86 (Guest)

Provider
DreamHost

Davis Vantage Vue

Meteohub

Debian 7.9 x86 (Guest)

DreamHost